Weather History for Valentine, NE

Change the Weather History Date:

Wednesday, February 20, 2013

  Actual Average Record
Temperature  
Mean Temperature 17 °F 28 °F  
Max Temperature 25 °F 41 °F 74 °F (1930)
Min Temperature 9 °F 16 °F -22 °F (1918)
Degree Days  
Heating Degree Days 48 37  
Month to date heating degree days 688 775  
Since 1 July heating degree days 4623 4953  
Cooling Degree Days 0 0  
Month to date cooling degree days 0 0  
Year to date cooling degree days 0 0  
Moisture  
Dew Point 10 °F    
Average Humidity 62    
Maximum Humidity 84    
Minimum Humidity 39    
Precipitation  
Precipitation 0.11 in 0.02 in 0.58 in (2011)
Month to date precipitation 0.65 0.30  
Year to date precipitation 0.90 0.56  
Snow  
Snow 1.20 in 0.20 in 5.30 in (1962)
Month to date snowfall 5.2 3.8  
Since 1 July snowfall 23.4 20.3  
Snow Depth 0.00 in    
Sea Level Pressure  
Sea Level Pressure 30.11 in    
Wind  
Wind Speed 13 mph (SE)    
Max Wind Speed 23 mph    
Max Gust Speed 29 mph    
Visibility 7 miles    
Events Snow    
T = Trace of Precipitation, MM = Missing Value Source: NWS Daily Summary

Daily Weather History Graph

Daily Weather History Graph

Search for Another Location

Airport:

Trip Planner

Search our weather history database for the weather conditions in past years. The results will help you decide how hot, cold, wet, or windy it might be!

Date:

Astronomy

Feb. 20, 2013 Rise Set
Actual Time 7:31 AM CST 6:20 PM CST
Civil Twilight 7:02 AM CST 6:49 PM CST
Nautical Twilight 6:30 AM CST 7:22 PM CST
Astronomical Twilight 5:57 AM CST 7:55 PM CST
Moon 1:39 PM CST (2/20) 3:57 AM CST (2/20)
Length of Visible Light 11h 46m
Length of Day
10h 48m
Waxing Gibbous, 76% of the Moon is Illuminated
Feb 20
Waxing Gibbous
Feb 25
Full
Mar 4
Last Quarter
Mar 11
New
Mar 19
First Quarter

Hourly Weather History & Observations

Time (CST) Temp. Windchill Dew Point Humidity Pressure Visibility Wind Dir Wind Speed Gust Speed Precip Events Conditions
12:52 AM 10.0 °F -5.2 °F 1.0 °F 67% 30.32 in 10.0 mi ESE 12.7 mph - N/A   Clear
1:52 AM 9.0 °F -6.6 °F 1.0 °F 70% 30.30 in 10.0 mi ESE 12.7 mph - N/A   Clear
2:52 AM 9.0 °F -6.6 °F 1.0 °F 70% 30.27 in 10.0 mi ESE 12.7 mph - N/A   Clear
3:52 AM 9.0 °F -5.9 °F 1.0 °F 70% 30.25 in 10.0 mi ESE 11.5 mph - N/A   Clear
4:52 AM 9.0 °F -7.9 °F -0.0 °F 67% 30.24 in 10.0 mi ESE 15.0 mph - N/A   Clear
5:52 AM 9.0 °F -5.1 °F -0.0 °F 67% 30.23 in 10.0 mi ESE 10.4 mph - N/A   Clear
6:52 AM 9.0 °F -3.2 °F -0.0 °F 67% 30.24 in 10.0 mi ESE 8.1 mph - N/A   Clear
7:52 AM 10.0 °F -2.9 °F -0.9 °F 61% 30.24 in 10.0 mi SE 9.2 mph - N/A   Scattered Clouds
8:52 AM 12.9 °F -0.9 °F -2.0 °F 51% 30.24 in 10.0 mi SE 11.5 mph - N/A   Overcast
9:52 AM 15.1 °F -0.1 °F -2.9 °F 45% 30.23 in 10.0 mi SE 15.0 mph - N/A   Overcast
10:36 AM 17.6 °F 2.7 °F -2.2 °F 42% 30.08 in 10.0 mi SE 16.1 mph - N/A   Overcast
10:52 AM 17.6 °F 1.7 °F -2.2 °F 42% 30.08 in 10.0 mi SE 18.4 mph - N/A   Overcast
11:52 AM 19.4 °F 4.1 °F -2.2 °F 39% 30.07 in 10.0 mi SSE 18.4 mph 26.5 mph N/A   Overcast
12:52 PM 21.9 °F 7.3 °F 1.9 °F 42% 30.19 in 10.0 mi SSE 18.4 mph 25.3 mph N/A   Overcast
1:52 PM 23.0 °F 9.6 °F 8.1 °F 53% 30.16 in 10.0 mi SSE 16.1 mph - N/A   Overcast
2:52 PM 24.1 °F 10.6 °F 10.9 °F 57% 30.13 in 10.0 mi SE 17.3 mph - 0.00 in   Overcast
3:52 PM 25.0 °F 12.2 °F 14.0 °F 63% 30.11 in 10.0 mi SE 16.1 mph - 0.00 in   Overcast
4:20 PM 24.8 °F 11.9 °F 15.8 °F 69% 29.98 in 10.0 mi SE 16.1 mph - N/A   Overcast
4:52 PM 25.0 °F 13.1 °F 16.0 °F 69% 30.11 in 10.0 mi SE 13.8 mph 23.0 mph N/A   Overcast
5:23 PM 24.8 °F 11.9 °F 15.8 °F 69% 29.98 in 10.0 mi SE 16.1 mph - N/A   Overcast
5:52 PM 24.1 °F 11.0 °F 15.1 °F 69% 30.12 in 10.0 mi SE 16.1 mph - N/A   Overcast
6:52 PM 24.1 °F 11.5 °F 14.0 °F 65% 30.12 in 10.0 mi SE 15.0 mph - N/A   Overcast
7:35 PM 21.2 °F 8.9 °F 15.8 °F 80% 29.99 in 2.0 mi ESE 12.7 mph - 0.01 in Snow Light Snow
7:52 PM 21.0 °F 9.3 °F 17.1 °F 85% 30.13 in 2.0 mi ESE 11.5 mph - 0.02 in Snow Light Snow
8:11 PM 21.2 °F 10.1 °F 17.6 °F 86% 30.00 in 3.0 mi ESE 10.4 mph - 0.00 in   Overcast
8:26 PM 21.2 °F 10.9 °F 17.6 °F 86% 30.00 in 2.0 mi ESE 9.2 mph - 0.00 in Snow Light Snow
8:45 PM 19.4 °F 7.9 °F 17.6 °F 93% 30.00 in 4.0 mi ESE 10.4 mph - 0.00 in Snow Light Snow
8:52 PM 19.4 °F 7.9 °F 15.8 °F 86% 30.00 in 6.0 mi SE 10.4 mph - N/A Snow Light Snow
9:18 PM 19.4 °F 6.0 °F 15.8 °F 86% 30.01 in 2.0 mi ESE 13.8 mph - N/A Snow Light Snow
9:26 PM 19.4 °F 5.5 °F 15.8 °F 86% 30.01 in - SE 15.0 mph - 0.01 in Snow Light Snow
9:34 PM 19.4 °F 6.0 °F 15.8 °F 86% 30.01 in 2.5 mi SE 13.8 mph - 0.01 in Snow Light Snow
9:37 PM 19.4 °F 6.6 °F 15.8 °F 86% 30.01 in 3.0 mi SE 12.7 mph - 0.01 in Snow Light Snow
9:52 PM 19.9 °F 7.9 °F 16.0 °F 85% 30.14 in 2.0 mi SE 11.5 mph - 0.01 in Snow Light Snow
10:07 PM 19.4 °F 7.9 °F 15.8 °F 86% 30.01 in 1.8 mi ESE 10.4 mph - 0.00 in Snow Light Snow
10:23 PM 19.4 °F 7.9 °F 15.8 °F 86% 30.01 in 1.0 mi East 10.4 mph - 0.01 in Snow Light Snow
10:39 PM 19.4 °F 7.9 °F 15.8 °F 86% 30.01 in 1.5 mi ESE 10.4 mph - 0.03 in Snow Light Snow
10:52 PM 19.0 °F 7.5 °F 16.0 °F 88% 30.13 in 1.2 mi ESE 10.4 mph - 0.04 in Snow Light Snow
11:19 PM 19.4 °F 7.2 °F 15.8 °F 86% 30.01 in 2.0 mi SE 11.5 mph - 0.02 in Snow Light Snow
11:39 PM 19.4 °F 5.0 °F 15.8 °F 86% 30.01 in 4.0 mi SE 16.1 mph - 0.03 in Snow Light Snow
11:52 PM 19.9 °F 8.6 °F 15.1 °F 81% 30.13 in 4.0 mi SE 10.4 mph - 0.03 in Snow Light Snow
11:59 PM 19.4 °F 7.9 °F 15.8 °F 86% 30.01 in 3.0 mi SE 10.4 mph - 0.01 in Snow Light Snow